Location: �A�n Sefra
(34.9681°N, 0.4346°E)
Time: 21:47:47
(UTC+00:00)

Cosmos 2123 Rocket - Pass Details

Date: 21 October 2019
Orbit: 960 x 993 km, 82.9° (Epoch: 20 November)

Event Time Altitude Azimuth Distance (km) Brightness Sun altitude
Rises 19:13:11 0° 175° (S) 3,689 6.9 -24.6°
Reaches altitude 10° 19:15:43 10° 172° (S) 2,741 6.2 -25.1°
Enters shadow 19:20:00 44° 152° (SSE) 1,343 4.4 -26.0°
Exits shadow 19:24:45 33° 24° (NNE) 1,595 4.9 -27.0°
Drops below altitude 10° 19:28:05 10° 13° (NNE) 2,738 6.3 -27.6°
Sets 19:30:37 0° 11° (N) 3,685 7.0 -28.2°
